Regional Weather Roundup
Issued by NWS

Home | Current Version | Previous Version | Text Only | Print | Product List | Glossary Off
Versions: 1 2 3 4 5 6 7 8 9 10 11 12 13 14 15 16 17 18 19 20 21 22 23 24 25 26

000
ASUS45 KTFX 231910
RWRMT
MONTANA REGIONAL WEATHER ROUNDUP
NATIONAL WEATHER SERVICE GREAT FALLS MT
100 PM MDT WED AUG 23 2017

NOTE: "FAIR" INDICATES FEW OR NO CLOUDS BELOW 12000 FEET WITH NO
SIGNIFICANT WEATHER AND/OR OBSTRUCTIONS TO VISIBILITY.

MTZ001>007-043-232000-
WEST OF THE DIVIDE

CITY           SKY/WX    TMP DP  RH WIND       PRES   REMARKS
KALISPELL      SUNNY     83  42  23 S13       29.99F
MISSOULA       MOSUNNY   73  37  27 SE3       30.04F HAZE
BUTTE          SUNNY     84  33  16 W7        30.16F
MULLAN PASS    CLOUDY    71  38  29 VRB3      30.20F
ANACONDA         N/A     81  41  24 NE9       30.10F
DEER LODGE       N/A     81  34  18 CALM      30.12F
EUREKA           N/A     90  39  17 MISG      29.94F
HAMILTON         N/A     73  43  33 CALM      30.06F
LIBBY            N/A     84  43  23 CALM      29.95F
PLAINS           N/A     83  46  27 CALM      29.99F
RONAN            N/A     84  44  24 CALM      30.06F
$$

MTZ008-052>055-232000-
SOUTHWEST MONTANA

CITY           SKY/WX    TMP DP  RH WIND       PRES   REMARKS
BOZEMAN        SUNNY     82  37  20 CALM      30.10F
DILLON         CLOUDY    79  36  21 VRB3      30.13F
W YELLOWSTONE  SUNNY     75  41  29 SW17G26   30.28F
ENNIS          SUNNY     82  36  18 VRB6      30.18F
TWIN BRIDGES     N/A     79  39  23 CALM      30.10F
$$

MTZ009-010-012-014-046-048-049-054-232000-
EAST SLOPES AND CENTRAL MONTANA

CITY           SKY/WX    TMP DP  RH WIND       PRES   REMARKS
CUT BANK       SUNNY     86  34  15 W8        29.98F
GREAT FALLS    SUNNY     88  31  13 W3        30.00F
MALMSTROM AFB  SUNNY     85  35  16 CALM      29.99F
HELENA         SUNNY     82  41  23 CALM      30.04F
AUGUSTA          N/A     84  31  15 SW9       30.04F
BOWMANS CRNR     N/A     83  30  14 S9        30.02F
CHOTEAU          N/A     88  34  14 VRB5      30.02F
FAIRFIELD        N/A     85  32  15 S5        30.00F
POWER            N/A     86  32  14 S7        30.00F
RAYNESFORD       N/A     87  29  12 NW10G20   30.02F
ULM              N/A     87  33  14 SW3       30.00F
$$

MTZ011-013-016-021-045-047-050-051-232000-
NORTH CENTRAL MONTANA

CITY           SKY/WX    TMP DP  RH WIND       PRES   REMARKS
HAVRE          SUNNY     85  37  18 S5        29.94F
LEWISTOWN      SUNNY     85  35  16 NW8       30.04F
N BAR RANCH      N/A     86  30  13 N9G16     30.07F
CHINOOK          N/A     82  43  24 NE3       29.93F
DENTON           N/A     84  35  16 CALM      29.98F
GEYSER           N/A     86  32  14 NW12      30.02F
GRASS RANGE      N/A     88  32  13 E7        29.98F
JUDITH GAP       N/A     84  34  16 N8        30.06F
WINIFRED         N/A     83  35  17 N8        30.01F
$$

MTZ017>020-022>027-061-062-232000-
NORTHEAST MONTANA

CITY           SKY/WX    TMP DP  RH WIND       PRES   REMARKS
GLASGOW        SUNNY     88  41  19 S8        29.95F
JORDAN           N/A     90  35  14 SE8       29.95F
SIDNEY         SUNNY     86  50  28 S6        29.96F
WOLF POINT     SUNNY     90  43  19 VRB3      29.94F
MALTA          SUNNY     88  43  20 NE6       29.93F
PLENTYWOOD       N/A     84  43  23 CALM      29.97F
POPLAR           N/A     88  46  23 SW3       29.95F
SCOBEY           N/A     88  43  20 W7        29.96F
$$

MTZ028>42-056>058-232000-
SOUTHCENTRAL AND SOUTHEAST MONTANA

CITY           SKY/WX    TMP DP  RH WIND       PRES   REMARKS
BAKER          SUNNY     87  43  21 MISG      30.02F
BILLINGS       SUNNY     85  39  19 S9        30.01F
LIVINGSTON     SUNNY     88  35  15 NW8       30.09F
MILES CITY     SUNNY     88  43  20 SE8       29.97F
BIG TIMBER     SUNNY     88  28  11 W16G24    30.09F
EKALAKA          N/A     87  42  20 NW2       30.01F
HARLOWTON        N/A     89  29  11 MISG      30.04F
LAUREL           N/A     84  44  24 S6        30.00F
$$

REGIONAL REPORTS...DAKOTAS

CITY           SKY/WX    TMP DP  RH WIND       PRES   REMARKS
WILLISTON      SUNNY     88  49  25 MISG      29.97F
MINOT          MOSUNNY   85  48  27 SW12      29.96F
DICKINSON      SUNNY     83  48  29 SE7       29.99F
BEACH            N/A     84  41  21 VRB5G12   30.03F
CROSBY           N/A     84  43  23 W8        29.97F
TIOGA            N/A     82  45  26 W10       29.99F
WATFORD CITY     N/A     86  45  23 VRB7      29.96F
BISMARCK       SUNNY     81  53  37 VRB7      30.01F
GRAND FORKS    CLOUDY    73  50  44 VRB3      30.05F
FARGO          SUNNY     76  49  38 VRB3      30.05F
BUFFALO SD       N/A     86  48  26 NE7       29.95F
RAPID CITY     SUNNY     85  53  33 NW6       30.01F
$$

REGIONAL REPORTS...WYOMING/IDAHO/WASHINGTON

CITY           SKY/WX    TMP DP  RH WIND       PRES   REMARKS
GILLETTE       SUNNY     89  35  14 E6        30.06F
SHERIDAN       SUNNY     90  39  16 N5        30.04F
BUFFALO WY     SUNNY     88  28  11 VRB3      30.11F
CODY           SUNNY     83  42  23 N13       30.11F
YELLOWSTONE LA   N/A     71  39  31 VRB6      30.36F
IDAHO FALLS    CLOUDY    71  52  50 SW16      30.22R
SALMON         PTSUNNY   71  39  31 CALM      30.10F
BOISE          CLOUDY    86  50  28 NE8       30.01F
SPOKANE        MOSUNNY   79  52  38 S10G18    30.00F
$$

REGIONAL REPORTS...ALBERTA

CITY           SKY/WX    TMP DP  RH WIND       PRES   REMARKS
EDMONTON       PTSUNNY   77  57  50 S10       29.89F
CALGARY        MOSUNNY   82  46  28 S5        29.92F
LETHBRIDGE     SUNNY     90  41  18 W13G24    29.90F
MEDICINE HAT   MOSUNNY   88  41  19 SW5       29.89F
$$

REGIONAL REPORTS...SASKATCHEWAN

CITY           SKY/WX    TMP DP  RH WIND       PRES   REMARKS
SWIFT CURRENT  MOSUNNY   82  45  26 E12G18    29.97F
REGINA         MOSUNNY   81  50  34 NE9       29.98S
SASKATOON      MOSUNNY   75  50  41 E10       30.02F
$$




USA.gov is the U.S. government's official web portal to all federal, state and local government web resources and services.